Weather History for Plant City, FL

Change the Weather History Date:

Monday, April 29, 2013

  Actual Average Record
Temperature  
Mean Temperature 78 °F -  
Max Temperature 87 °F 86 °F 95 °F (1954)
Min Temperature 68 °F 60 °F 43 °F (1992)
Cooling Degree Days 12    
Growing Degree Days 28 (Base 50)    
Moisture  
Dew Point 65 °F    
Average Humidity 70    
Maximum Humidity 100    
Minimum Humidity 35    
Precipitation  
Precipitation 0.00 in - - ()
Sea Level Pressure  
Sea Level Pressure 30.01 in    
Wind  
Wind Speed 6 mph (South)    
Max Wind Speed 13 mph    
Max Gust Speed 17 mph    
Visibility 10 miles    
Events      
Averages and records for this station are not official NWS values.
T = Trace of Precipitation, MM = Missing Value Source: NWS Daily Summary

Daily Weather History Graph

Daily Weather History Graph

Search for Another Location

Airport:

Trip Planner

Search our weather history database for the weather conditions in past years. The results will help you decide how hot, cold, wet, or windy it might be!

Date:

Astronomy

Apr. 29, 2013 Rise Set
Actual Time 6:50 AM EDT 8:02 PM EDT
Civil Twilight 6:25 AM EDT 8:26 PM EDT
Nautical Twilight 5:56 AM EDT 8:56 PM EDT
Astronomical Twilight 5:26 AM EDT 9:26 PM EDT
Moon No Moon Rise 10:17 AM EDT
Length of Visible Light 14h 01m
Length of Day
13h 11m
Waning Gibbous, 80% of the Moon is Illuminated
Apr 29
Waning Gibbous
May 2
Last Quarter
May 9
New
May 18
First Quarter
May 25
Full

Hourly Weather History & Observations

Time (EDT) Temp. Heat Index Dew Point Humidity Pressure Visibility Wind Dir Wind Speed Gust Speed Precip Events Conditions
12:15 AM 71.6 °F - 60.8 °F 69% 30.06 in 10.0 mi SE 6.9 mph - N/A   Clear
12:35 AM 71.6 °F - 60.8 °F 69% 30.07 in 10.0 mi SSE 5.8 mph - N/A   Scattered Clouds
12:55 AM 71.6 °F - 62.6 °F 73% 30.06 in 10.0 mi ESE 6.9 mph - N/A   Scattered Clouds
1:15 AM 71.6 °F - 62.6 °F 73% 30.06 in 10.0 mi SE 8.1 mph - N/A   Scattered Clouds
1:35 AM 71.6 °F - 62.6 °F 73% 30.05 in 10.0 mi SE 5.8 mph - N/A   Scattered Clouds
1:55 AM 71.6 °F - 62.6 °F 73% 30.04 in 10.0 mi ESE 8.1 mph - N/A   Clear
2:15 AM 71.6 °F - 62.6 °F 73% 30.04 in 10.0 mi ESE 6.9 mph - N/A   Clear
2:35 AM 71.6 °F - 64.4 °F 78% 30.03 in 10.0 mi SE 6.9 mph - N/A   Clear
2:55 AM 69.8 °F - 64.4 °F 83% 30.03 in 10.0 mi SE 5.8 mph - N/A   Clear
3:15 AM 69.8 °F - 64.4 °F 83% 30.03 in 10.0 mi SSE 4.6 mph - N/A   Scattered Clouds
3:35 AM 69.8 °F - 64.4 °F 83% 30.03 in 10.0 mi Calm Calm - N/A   Mostly Cloudy
3:55 AM 69.8 °F - 64.4 °F 83% 30.02 in 10.0 mi ESE 3.5 mph - N/A   Scattered Clouds
4:15 AM 68.0 °F - 66.2 °F 94% 30.02 in 10.0 mi Calm Calm - N/A   Clear
4:35 AM 69.8 °F - 64.4 °F 83% 30.02 in 10.0 mi Calm Calm - N/A   Mostly Cloudy
4:55 AM 69.8 °F - 64.4 °F 83% 30.02 in 10.0 mi Calm Calm - N/A   Overcast
5:15 AM 69.8 °F - 64.4 °F 83% 30.02 in 10.0 mi Calm Calm - N/A   Overcast
5:35 AM 69.8 °F - 64.4 °F 83% 30.02 in 10.0 mi East 3.5 mph - N/A   Mostly Cloudy
5:55 AM 69.8 °F - 64.4 °F 83% 30.02 in 10.0 mi East 3.5 mph - N/A   Mostly Cloudy
6:15 AM 68.0 °F - 68.0 °F 100% 30.03 in 10.0 mi Calm Calm - N/A   Overcast
6:35 AM 69.8 °F - 64.4 °F 83% 30.03 in 10.0 mi East 3.5 mph - N/A   Overcast
6:55 AM 69.8 °F - 68.0 °F 94% 30.03 in 10.0 mi East 3.5 mph - N/A   Overcast
7:15 AM 69.8 °F - 66.2 °F 88% 30.04 in 10.0 mi Calm Calm - N/A   Overcast
7:35 AM 69.8 °F - 66.2 °F 88% 30.04 in 10.0 mi Calm Calm - N/A   Mostly Cloudy
7:55 AM 69.8 °F - 64.4 °F 83% 30.05 in 10.0 mi East 3.5 mph - N/A   Mostly Cloudy
8:15 AM 71.6 °F - 66.2 °F 83% 30.05 in 10.0 mi East 3.5 mph - N/A   Mostly Cloudy
8:35 AM 73.4 °F - 64.4 °F 73% 30.05 in 10.0 mi SE 4.6 mph - N/A   Scattered Clouds
8:55 AM 73.4 °F - 66.2 °F 78% 30.06 in 10.0 mi ESE 5.8 mph - N/A   Mostly Cloudy
9:15 AM 75.2 °F - 64.4 °F 69% 30.05 in 10.0 mi SE 6.9 mph - N/A   Scattered Clouds
9:35 AM 77.0 °F - 64.4 °F 65% 30.05 in 10.0 mi SSE 9.2 mph - N/A   Clear
9:55 AM 78.8 °F - 64.4 °F 61% 30.05 in 10.0 mi SSE 6.9 mph - N/A   Clear
10:15 AM 78.8 °F - 64.4 °F 61% 30.05 in 10.0 mi SSE 6.9 mph - N/A   Clear
10:35 AM 80.6 °F 82.3 °F 64.4 °F 58% 30.05 in 10.0 mi SSE 6.9 mph - N/A   Clear
10:55 AM - - - N/A% 30.05 in 10.0 mi SSE 8.1 mph - N/A   Scattered Clouds
11:15 AM - - - N/A% 30.05 in 10.0 mi SE 8.1 mph - N/A   Scattered Clouds
11:35 AM - - - N/A% 30.04 in 10.0 mi SE 8.1 mph - N/A   Scattered Clouds
11:55 AM 84.2 °F 85.6 °F 64.4 °F 51% 30.05 in 10.0 mi SSE 8.1 mph - N/A   Scattered Clouds
12:15 PM 82.4 °F 83.4 °F 62.6 °F 51% 30.05 in 10.0 mi SSW 8.1 mph - N/A   Scattered Clouds
12:35 PM - - - N/A% 30.05 in 10.0 mi South 9.2 mph - N/A   Scattered Clouds
12:55 PM 84.2 °F 85.0 °F 62.6 °F 48% 30.04 in 10.0 mi South 4.6 mph - N/A   Scattered Clouds
1:15 PM 84.2 °F 84.4 °F 60.8 °F 45% 30.04 in 10.0 mi SSW 12.7 mph - N/A   Scattered Clouds
1:35 PM - - - N/A% 30.03 in 10.0 mi SSW 5.8 mph - N/A   Clear
1:55 PM - - - N/A% 30.02 in 10.0 mi SW 5.8 mph - N/A   Scattered Clouds
2:15 PM 87.8 °F 86.5 °F 57.2 °F 35% 30.01 in 10.0 mi South 5.8 mph - N/A   Scattered Clouds
2:35 PM 86.0 °F 85.4 °F 59.0 °F 40% 30.00 in 10.0 mi South 5.8 mph - N/A   Scattered Clouds
2:55 PM 86.0 °F 85.4 °F 59.0 °F 40% 29.99 in 10.0 mi SSW 5.8 mph - N/A   Scattered Clouds
3:15 PM - - - N/A% 29.99 in 10.0 mi South 4.6 mph - N/A   Clear
3:35 PM - - - N/A% 29.97 in 10.0 mi SSE 5.8 mph - N/A   Scattered Clouds
3:55 PM 87.8 °F 87.1 °F 59.0 °F 38% 29.96 in 10.0 mi SW 6.9 mph - N/A   Scattered Clouds
4:15 PM - - - N/A% 29.94 in 10.0 mi WSW 8.1 mph 17.3 mph N/A   Scattered Clouds
4:35 PM - - - N/A% 29.94 in 10.0 mi SW 9.2 mph - N/A   Clear
4:55 PM 86.0 °F 86.6 °F 62.6 °F 45% 29.94 in 10.0 mi West 11.5 mph - N/A   Clear
5:15 PM - - - N/A% 29.95 in 10.0 mi WSW 12.7 mph - N/A   Clear
5:35 PM 84.2 °F 85.0 °F 62.6 °F 48% 29.94 in 10.0 mi West 10.4 mph - N/A   Clear
5:55 PM 84.2 °F 85.0 °F 62.6 °F 48% 29.95 in 10.0 mi West 5.8 mph - N/A   Clear
6:15 PM 82.4 °F 83.4 °F 62.6 °F 51% 29.95 in 10.0 mi West 6.9 mph - N/A   Clear
6:35 PM 82.4 °F 83.4 °F 62.6 °F 51% 29.95 in 10.0 mi West 9.2 mph - N/A   Clear
6:55 PM 82.4 °F 83.9 °F 64.4 °F 54% 29.96 in 10.0 mi West 8.1 mph - N/A   Clear
7:15 PM 82.4 °F 83.9 °F 64.4 °F 54% 29.95 in 10.0 mi West 8.1 mph - N/A   Clear
7:35 PM 80.6 °F 81.8 °F 62.6 °F 54% 29.96 in 10.0 mi WSW 8.1 mph - N/A   Clear
7:55 PM 78.8 °F - 66.2 °F 65% 29.97 in 10.0 mi WSW 10.4 mph - N/A   Clear
8:15 PM 78.8 °F - 66.2 °F 65% 29.97 in 10.0 mi WSW 8.1 mph - N/A   Clear
8:35 PM 78.8 °F - 66.2 °F 65% 29.97 in 10.0 mi WSW 11.5 mph - N/A   Clear
8:55 PM 78.8 °F - 66.2 °F 65% 29.97 in 10.0 mi WSW 9.2 mph - N/A   Clear
9:15 PM 77.0 °F - 68.0 °F 74% 29.97 in 10.0 mi West 4.6 mph - N/A   Clear
9:35 PM 77.0 °F - 68.0 °F 74% 29.97 in 10.0 mi Calm Calm - N/A   Clear
9:55 PM 77.0 °F - 68.0 °F 74% 29.98 in 10.0 mi Calm Calm - N/A   Clear
10:15 PM 73.4 °F - 69.8 °F 88% 29.99 in 10.0 mi Calm Calm - N/A   Clear
10:35 PM 75.2 °F - 69.8 °F 83% 29.99 in 10.0 mi Calm Calm - N/A   Mostly Cloudy
10:55 PM 73.4 °F - 69.8 °F 88% 30.00 in 10.0 mi Calm Calm - N/A   Overcast
11:35 PM 73.4 °F - 71.6 °F 94% 30.00 in 10.0 mi Calm Calm - N/A   Clear
11:55 PM 73.4 °F - 71.6 °F 94% 30.00 in 10.0 mi Calm Calm - N/A   Clear